P/2001 WF2 (LONEOS)                                                   

Epoch 2007 Jan. 20.0 TT = JDT 2454120.5  

T 2007 Feb. 6.18669 TT                                  Nakano

q   0.9796689            (2000.0)            P               Q

n   0.19626470     Peri.   51.44763     -0.56228524     -0.77775132

a   2.9325218      Node    75.06050     +0.63899595     -0.62430228

e   0.6659295      Incl.   16.90517     +0.52489949     -0.07314059

P   5.02 (+/- 0.02 day)

From 104 observations 2001 Nov. 17-2002 Apr. 17, mean residual 0".52.

Residuals in seconds of arc 

2001/                     011207 658  0.1+  0.0     011219 699  0.3-  0.2-  

011117 699  0.2+  1.1+    011207 658  0.6-  0.1-    011219 699  0.6-  0.0   

011117 699  1.0-  0.4+    011208 118  0.5+  0.1-    2002/                   

011117 699  0.2-  0.1-    011208 118  0.1-  0.4+    020103 118  0.4+  0.1-  

011117 699  0.8-  0.5+    011208 118  0.9-  0.5+    020103 118  0.5+  0.6+  

011117 046  0.5-  0.5-    011209 699  0.3-  0.2+    020103 611  0.6-  0.7+  

011117 046  1.0-  0.8-    011209 699  0.0   0.6+    020103 611  0.0   1.1-  

011117 046  0.1+  0.7-    011209 699  0.2-  0.6-    020103 611  0.3+  0.5-  

011117 046  0.5-  0.2+    011209 699  0.4-  0.1+    020104 118  0.6+  1.1-  

011117 046  0.1-  0.7-    011209 118  0.5-  0.5+    020104 118  0.8+  1.2+  

011120 046  0.1+  0.7-    011209 118  0.1+  0.1+    020104 118  1.0+  0.5-  

011120 046  0.7+  0.4+    011209 118  0.1-  0.2+    020104 118  0.6-  0.1-  

011120 046  0.1-  0.2-    011209 046  0.2-  0.2+    020107 704  1.5-  0.1-  

011120 046  0.3-  0.1+    011209 046  0.3-  0.2+    020107 704  0.5+  0.1-  

011120 046  1.8+  0.8-    011209 046  0.4+  0.4+    020107 704  0.1+  0.3-  

011120 557  0.2-  0.7+    011209 046  1.0-  0.5+    020107 704  0.3+  0.9+  

011120 557  0.0   0.2+    011214 704  0.0   0.3+    020107 704  0.0   0.9+  

011121 918  0.4+  0.2+    011214 704  0.1-  0.0     020213 696  0.4-  0.4-  

011121 918  0.1-  0.4+    011214 704  0.1-  0.5-    020213 696  0.0   0.3-  

011121 918  0.2-  0.5+    011214 704  0.0   0.2-    020215 118  0.5+  0.2+  

011202 715  0.1-  0.7-    011214 704  0.5+  0.2+    020215 118  0.2+  0.3+  

011202 715  0.7+  1.8-    011215 118  0.7+  0.5-    020215 118  1.0+  0.3+  

011202 715  0.4-  1.2-    011215 118  0.3-  0.4-    020311 696  0.2-  0.5-  

011202 118  0.3+  0.4-    011215 118  0.0   0.2-    020311 696  0.1-  0.5-  

011202 118  1.1+  0.7-    011218 704  0.1+  0.1-    020311 696  0.2-  1.0-  

011204 413  0.2+  0.1-    011218 704  0.1-  0.1-    020311 360  0.3+  0.1+  

011204 413  0.4+  0.1-    011218 704  0.0   0.2-    020311 360  0.5+  0.0   

011204 413  0.0   0.1+    011218 704  0.0   0.2+    020412 360  0.9-  0.9-  

011205 670  0.6-  1.5+    011218 704  0.1-  0.4+    020412 360  0.2+  0.1-  

011205 670  0.2+  1.1-    011219 704  0.3+  0.3+    020412 360  0.3+  0.4+  

011207 704  0.5+  0.1-    011219 704  0.0   0.4+    020417 046  0.5-  0.2+  

011207 704  0.4+  0.2-    011219 704  0.4+  0.6+    020417 046  0.7+  0.4+  

011207 704  0.5-  0.6-    011219 704  0.1+  0.6+    020417 046  0.3+  0.2-  

011207 704  0.1+  0.1+    011219 704  0.2+  0.3+    020417 046  0.6-  0.7+  

011207 704  0.3+  0.2+    011219 699  0.6+  0.6+    

011207 658  0.0   0.4+    011219 699  0.0   0.3-    





NAKANO

         **** Don't distribute anyone except personal use only ****

                (C) Copyright 2002 OAA/ComputingSection

write mail from CFAD0::NAKANO on 2002-11-19 01:50:02(JST).

 

    P/2001 WF2 (LONEOS) 

Epoch 2002 Feb. 15.0 TT = JDT 2452320.5  

T 2002 Jan. 29.84808 TT                                 Nakano

q   0.9763510            (2000.0)            P               Q

n   0.19656727     Peri.   51.35239     -0.56192690     -0.77787462

a   2.9295117      Node    75.13266     +0.63927747     -0.62422375

e   0.6667189      Incl.   16.92259     +0.52494045     -0.07249679

P   5.01 (+/- 0.05 day)

From 100 observations 2001 Nov. 17-2002 Apr. 12, mean residual 0".52.

Residuals in seconds of arc 

2001/                     011207 704  0.3+  0.2+    011219 704  0.1+  0.6+  

011117 699  0.2+  1.1+    011207 658  0.0   0.4+    011219 704  0.2+  0.3+  

011117 699  1.0-  0.4+    011207 658  0.1+  0.0     011219 699  0.6+  0.6+  

011117 699  0.2-  0.1-    011207 658  0.5-  0.0     011219 699  0.0   0.3-  

011117 699  0.8-  0.5+    011208 118  0.5+  0.1-    011219 699  0.3-  0.2-  

011117 046  0.5-  0.5-    011208 118  0.0   0.4+    011219 699  0.5-  0.0   

011117 046  1.0-  0.8-    011208 118  0.9-  0.5+    2002/                   

011117 046  0.1+  0.7-    011209 699  0.3-  0.2+    020103 118  0.4+  0.1-  

011117 046  0.5-  0.1+    011209 699  0.0   0.6+    020103 118  0.4+  0.6+  

011117 046  0.1-  0.7-    011209 699  0.1-  0.6-    020103 611  0.6-  0.7+  

011120 046  0.1+  0.7-    011209 699  0.4-  0.1+    020103 611  0.0   1.1-  

011120 046  0.6+  0.4+    011209 118  0.5-  0.5+    020103 611  0.3+  0.5-  

011120 046  0.1-  0.2-    011209 118  0.1+  0.1+    020104 118  0.5+  1.1-  

011120 046  0.3-  0.1+    011209 118  0.1-  0.2+    020104 118  0.7+  1.2+  

011120 046  1.7+  0.8-    011209 046  0.1-  0.2+    020104 118  0.9+  0.5-  

011120 557  0.2-  0.7+    011209 046  0.3-  0.2+    020104 118  0.7-  0.1-  

011120 557  0.0   0.1+    011209 046  0.4+  0.4+    020107 704  1.5-  0.1-  

011121 918  0.4+  0.2+    011209 046  1.0-  0.5+    020107 704  0.4+  0.1-  

011121 918  0.1-  0.4+    011214 704  0.0   0.3+    020107 704  0.0   0.3-  

011121 918  0.2-  0.4+    011214 704  0.1-  0.0     020107 704  0.2+  0.9+  

011202 715  0.1-  0.7-    011214 704  0.1-  0.5-    020107 704  0.0   0.9+  

011202 715  0.8+  1.8-    011214 704  0.0   0.2-    020213 696  0.3-  0.4-  

011202 715  0.4-  1.2-    011214 704  0.5+  0.2+    020213 696  0.1+  0.3-  

011202 118  0.3+  0.4-    011215 118  0.7+  0.5-    020215 118  0.5+  0.2+  

011202 118  1.1+  0.7-    011215 118  0.3-  0.4-    020215 118  0.3+  0.3+  

011204 413  0.2+  0.1-    011215 118  0.0   0.2-    020215 118  1.1+  0.3+  

011204 413  0.4+  0.1-    011218 704  0.1+  0.1-    020311 696  0.2-  0.4-  

011204 413  0.0   0.1+    011218 704  0.1-  0.1-    020311 696  0.2-  0.4-  

011205 670  0.6-  1.5+    011218 704  0.0   0.2-    020311 696  0.3-  1.0-  

011205 670  0.3+  1.1-    011218 704  0.0   0.2+    020311 360  0.2+  0.2+  

011207 704  0.5+  0.1-    011218 704  0.1-  0.4+    020311 360  0.4+  0.1+  

011207 704  0.4+  0.2-    011219 704  0.3+  0.3+    020412 360  1.0-  0.7-  

011207 704  0.5-  0.6-    011219 704  0.0   0.4+    020412 360  0.1+  0.1+  

011207 704  0.1+  0.1+    011219 704  0.4+  0.6+    020412 360  0.3+  0.6+  



NAKANO

         **** Don't distribute anyone except personal use only ****

                (C) Copyright 2002 OAA/ComputingSection

write mail from CFAD0::NAKANO on 2002-04-26 05:07:08(JST).

 





◎P/2001 WF2の軌道と予報位置です



 微小の彗星で,我が国からの観測の報告はありません.また,CCD全光度は

報告されていませんが,こんなもんでしょう.



    P/2001 WF2 (LONEOS) 

Epoch 2002 Feb. 15.0 TT = JDT 2452320.5  

T 2002 Jan. 29.84807 TT                                 Nakano

q   0.9763512            (2000.0)            P               Q

n   0.19656036     Peri.   51.35243     -0.56192543     -0.77787469

a   2.9295804      Node    75.13257     +0.63927680     -0.62422388

e   0.6667266      Incl.   16.92276     +0.52494283     -0.07249499

P   5.01

From 92 observations 2001 Nov. 17-2002 Feb. 15, mean residual 0".52.

 

Date/        TT  R.A.(2000) Decl.     Delta   r     Daily motion  Mag.  Moon Age

              h    h  m       。  ,                      ,  / PA 。  m1      。

2002 Feb. 20 18  17 45.24  +59 39.0   0.295  1.024    54.5 / 241  19.0   99  .52

          21 18  17 39.04  +59 12.1   0.298  1.029    53.7 / 240  19.0   98  .63

          22 18  17 33.05  +58 44.7   0.301  1.033    53.0 / 239  19.0   97  .73

          23 18  17 27.29  +58 17.0   0.303  1.038    52.4 / 238  19.1   95  .82

          24 18  17 21.71  +57 48.9   0.306  1.042    51.8 / 237  19.1   92  .90

          25 18  17 16.33  +57 20.6   0.309  1.047    51.2 / 237  19.2   88  .96

          26 18  17 11.11  +56 52.0   0.312  1.052    50.7 / 236  19.2   85  .99

          27 18  17 06.05  +56 23.3   0.314  1.058    50.2 / 235  19.2   81 1.00

          28 18  17 01.13  +55 54.4   0.317  1.063    49.8 / 235  19.3   77  .97

     Mar.  1 18  16 56.35  +55 25.3   0.320  1.068    49.4 / 234  19.3   74  .91

           2 18  16 51.68  +54 56.2   0.322  1.074    49.1 / 234  19.4   72  .84

           3 18  16 47.13  +54 26.9   0.325  1.080    48.9 / 234  19.4   72  .74

           4 18  16 42.68  +53 57.5   0.328  1.086    48.6 / 233  19.4   73  .64

           5 18  16 38.32  +53 28.1   0.331  1.092    48.5 / 233  19.5   75  .53

           6 18  16 34.05  +52 58.5   0.333  1.098    48.3 / 233  19.5   77  .43

           7 18  16 29.85  +52 28.8   0.336  1.104    48.3 / 232  19.6   81  .33

           8 18  16 25.72  +51 58.9   0.339  1.111    48.2 / 232  19.6   86  .24

           9 18  16 21.65  +51 28.9   0.341  1.117    48.2 / 232  19.6   91  .16

          10 18  16 17.64  +50 58.8   0.344  1.124    48.3 / 231  19.7   96  .10

          11 18  16 13.69  +50 28.5   0.347  1.130    48.3 / 231  19.7  101  .05

          12 18  16 09.79  +49 57.9   0.350  1.137    48.4 / 231  19.8  106  .02

          13 18  16 05.93  +49 27.2   0.352  1.144    48.5 / 231  19.8  110  .00

          14 18  16 02.12  +48 56.2   0.355  1.151    48.7 / 230  19.9  114  .01

          15 18  15 58.35  +48 24.9   0.358  1.158    48.8 / 230  19.9  117  .03

          16 18  15 54.63  +47 53.4   0.361  1.165    49.0 / 230  20.0  119  .06

          17 18  15 50.94  +47 21.5   0.364  1.173    49.2 / 230  20.0  119  .12

          18 18  15 47.29  +46 49.4   0.367  1.180    49.4 / 229  20.0  118  .19

          19 18  15 43.68  +46 16.9   0.370  1.188    49.6 / 229  20.1  115  .27

          20 18  15 40.11  +45 44.1   0.373  1.195    49.8 / 229  20.1  111  .36

          21 18  15 36.58  +45 11.0   0.376  1.203    50.0 / 228  20.2  105  .46

          22 18  15 33.09  +44 37.5   0.379  1.210    50.2 / 228  20.2   98  .57

          23 18  15 29.64  +44 03.6   0.383  1.218    50.3 / 227  20.3   91  .68

          24 18  15 26.23  +43 29.4   0.386  1.226    50.5 / 227  20.3   82  .78

          25 18  15 22.86  +42 54.8   0.389  1.234    50.7 / 227  20.4   74  .87

          26 18  15 19.54  +42 19.9   0.393  1.242    50.8 / 226  20.4   66  .94

          27 18  15 16.26  +41 44.6   0.397  1.250    50.9 / 226  20.5   59  .98

          28 18  15 13.02  +41 09.0   0.400  1.258    51.0 / 225  20.5   53 1.00

          29 18  15 09.83  +40 33.0   0.404  1.266    51.1 / 225  20.6   51  .98

          30 18  15 06.69  +39 56.7   0.408  1.274    51.1 / 225  20.6   52  .94

          31 18  15 03.60  +39 20.2   0.412  1.282    51.1 / 224  20.7   56  .87

     Apr.  1 18  15 00.56  +38 43.3   0.417  1.290    51.1 / 224  20.7   62  .79

NAKANO

         **** Don't distribute anyone except personal use only ****

                (C) Copyright 2002 OAA/ComputingSection

write mail from CFAD0::NAKANO on 2002-02-24 01:09:35(JST).

 



戻ります。